RPA3624 KORD-KCMH

Flight info

Callsign RPA3624
Flight time 0h 46m
Altitude 25000
Route MOBLE ADIME SEWTO FWA BRYEN DUBLN1
Aircraft E170/M-VGDW/C

Departure

Time 2026-05-09 01:17
Airport Chicago O'Hare International Airport (KORD)

Arrival

Time 2026-05-09 02:04
Airport John Glenn Columbus International Airport (KCMH)
Time Latitude Longitude Altitude Speed Heading
2026-05-09 00:53 41.97690 -87.91112 664 ft 0 kts 89°
2026-05-09 01:04 41.97690 -87.91132 665 ft 2 kts 89°
2026-05-09 01:05 41.97690 -87.91152 665 ft 2 kts 89°
2026-05-09 01:05 41.97691 -87.91173 666 ft 2 kts 115°
2026-05-09 01:05 41.97711 -87.91193 665 ft 0 kts 176°
2026-05-09 01:06 41.97718 -87.91193 665 ft 1 kts 182°
2026-05-09 01:06 41.97720 -87.91193 665 ft 0 kts 181°
2026-05-09 01:09 41.97706 -87.91198 665 ft 4 kts 197°
2026-05-09 01:09 41.97665 -87.91214 666 ft 7 kts 187°
2026-05-09 01:10 41.97608 -87.91181 666 ft 10 kts 139°
2026-05-09 01:10 41.97541 -87.91110 666 ft 14 kts 140°
2026-05-09 01:10 41.97503 -87.91068 666 ft 5 kts 144°
2026-05-09 01:10 41.97466 -87.91036 666 ft 6 kts 149°
2026-05-09 01:11 41.97428 -87.90994 666 ft 7 kts 139°
2026-05-09 01:11 41.97384 -87.90945 666 ft 9 kts 140°
2026-05-09 01:11 41.97332 -87.90878 666 ft 11 kts 136°
2026-05-09 01:11 41.97274 -87.90793 666 ft 12 kts 130°
2026-05-09 01:12 41.97226 -87.90693 665 ft 13 kts 107°
2026-05-09 01:12 41.97215 -87.90578 663 ft 5 kts 97°
2026-05-09 01:12 41.97186 -87.90530 663 ft 8 kts 163°
2026-05-09 01:12 41.97125 -87.90495 663 ft 10 kts 161°
2026-05-09 01:13 41.97055 -87.90512 663 ft 10 kts 225°
2026-05-09 01:13 41.97040 -87.90620 665 ft 13 kts 270°
2026-05-09 01:13 41.97040 -87.90749 666 ft 15 kts 270°
2026-05-09 01:13 41.97039 -87.90903 666 ft 17 kts 270°
2026-05-09 01:14 41.97039 -87.91080 666 ft 19 kts 270°
2026-05-09 01:14 41.97039 -87.91265 666 ft 20 kts 270°
2026-05-09 01:14 41.97039 -87.91454 666 ft 20 kts 270°
2026-05-09 01:14 41.97039 -87.91649 666 ft 21 kts 269°
2026-05-09 01:15 41.97038 -87.91795 666 ft 15 kts 270°
2026-05-09 01:15 41.97039 -87.91937 667 ft 14 kts 269°
2026-05-09 01:15 41.97038 -87.92068 669 ft 13 kts 270°
2026-05-09 01:15 41.97037 -87.92200 669 ft 14 kts 269°
2026-05-09 01:16 41.97036 -87.92345 669 ft 16 kts 269°
2026-05-09 01:16 41.97033 -87.92497 669 ft 12 kts 254°
2026-05-09 01:16 41.96959 -87.92539 670 ft 13 kts 178°
2026-05-09 01:17 41.96902 -87.92047 669 ft 79 kts 90°
2026-05-09 01:17 41.96902 -87.91009 669 ft 138 kts 90°
2026-05-09 01:17 41.96909 -87.89587 930 ft 162 kts 95°
2026-05-09 01:17 41.96711 -87.88077 1509 ft 169 kts 107°
2026-05-09 01:18 41.96431 -87.86550 2134 ft 175 kts 105°
2026-05-09 01:18 41.96124 -87.84840 2398 ft 203 kts 105°
2026-05-09 01:18 41.95772 -87.82918 2752 ft 224 kts 105°
2026-05-09 01:18 41.95385 -87.80840 3304 ft 236 kts 105°
2026-05-09 01:19 41.94971 -87.78655 3919 ft 245 kts 105°
2026-05-09 01:19 41.94544 -87.76399 4418 ft 261 kts 102°
2026-05-09 01:19 41.94231 -87.73945 4834 ft 278 kts 98°
2026-05-09 01:19 41.94242 -87.71278 5410 ft 289 kts 85°
2026-05-09 01:20 41.94350 -87.68597 6173 ft 291 kts 87°
2026-05-09 01:20 41.94407 -87.65926 6933 ft 292 kts 88°
2026-05-09 01:20 41.94439 -87.63190 7695 ft 293 kts 88°
2026-05-09 01:20 41.94459 -87.60481 8395 ft 295 kts 88°
2026-05-09 01:21 41.94474 -87.57717 9050 ft 299 kts 87°
2026-05-09 01:21 41.94486 -87.54917 9704 ft 302 kts 87°
2026-05-09 01:21 41.94498 -87.52042 9925 ft 322 kts 87°
2026-05-09 01:21 41.94508 -87.48949 9979 ft 346 kts 88°
2026-05-09 01:22 41.94517 -87.45661 10262 ft 360 kts 88°
2026-05-09 01:22 41.94525 -87.42279 10839 ft 365 kts 87°
2026-05-09 01:22 41.94532 -87.38847 11499 ft 366 kts 87°
2026-05-09 01:22 41.94539 -87.35456 12110 ft 368 kts 87°
2026-05-09 01:23 41.94544 -87.32017 12686 ft 371 kts 88°
2026-05-09 01:23 41.94549 -87.28589 13221 ft 374 kts 88°
2026-05-09 01:23 41.94553 -87.25067 13746 ft 378 kts 88°
2026-05-09 01:23 41.94555 -87.21533 14271 ft 381 kts 88°
2026-05-09 01:24 41.94557 -87.17956 14781 ft 385 kts 88°
2026-05-09 01:24 41.94558 -87.14352 15248 ft 389 kts 88°
2026-05-09 01:24 41.94557 -87.10753 15738 ft 393 kts 88°
2026-05-09 01:24 41.94555 -87.07063 16208 ft 397 kts 88°
2026-05-09 01:25 41.94603 -87.03364 16648 ft 401 kts 87°
2026-05-09 01:25 41.94662 -86.99618 17101 ft 405 kts 87°
2026-05-09 01:25 41.94722 -86.95811 17558 ft 409 kts 87°
2026-05-09 01:25 41.94781 -86.91993 18028 ft 412 kts 87°
2026-05-09 01:26 41.94839 -86.88125 18478 ft 415 kts 87°
2026-05-09 01:26 41.94895 -86.84281 18919 ft 419 kts 88°
2026-05-09 01:26 41.94952 -86.80331 19319 ft 423 kts 87°
2026-05-09 01:26 41.95007 -86.76392 19702 ft 428 kts 87°
2026-05-09 01:27 41.95061 -86.72395 20084 ft 432 kts 88°
2026-05-09 01:27 41.95114 -86.68368 20484 ft 436 kts 88°
2026-05-09 01:27 41.95167 -86.64291 20909 ft 439 kts 88°
2026-05-09 01:27 41.95219 -86.60154 21308 ft 443 kts 88°
2026-05-09 01:28 41.95269 -86.56053 21679 ft 446 kts 88°
2026-05-09 01:28 41.95319 -86.51846 22035 ft 450 kts 88°
2026-05-09 01:28 41.95367 -86.47689 22357 ft 454 kts 88°
2026-05-09 01:28 41.95415 -86.43398 22721 ft 458 kts 88°
2026-05-09 01:29 41.95460 -86.39152 23049 ft 463 kts 88°
2026-05-09 01:29 41.95506 -86.34759 23216 ft 471 kts 89°
2026-05-09 01:29 41.95456 -86.30396 23338 ft 478 kts 99°
2026-05-09 01:29 41.94633 -86.26041 23592 ft 478 kts 117°
2026-05-09 01:30 41.92869 -86.22356 23890 ft 468 kts 139°
2026-05-09 01:30 41.90499 -86.19460 24277 ft 463 kts 146°
2026-05-09 01:30 41.88026 -86.16667 24638 ft 464 kts 146°
2026-05-09 01:30 41.85590 -86.13907 24796 ft 463 kts 146°
2026-05-09 01:31 41.83127 -86.11116 24825 ft 470 kts 146°
2026-05-09 01:31 41.80604 -86.08257 24832 ft 472 kts 147°
2026-05-09 01:31 41.78180 -86.05385 24821 ft 473 kts 143°
2026-05-09 01:31 41.75845 -86.02271 24822 ft 475 kts 140°
2026-05-09 01:32 41.73551 -85.99094 24822 ft 474 kts 140°
2026-05-09 01:32 41.71241 -85.95868 24840 ft 475 kts 140°
2026-05-09 01:32 41.68984 -85.92709 24816 ft 476 kts 140°
2026-05-09 01:32 41.66701 -85.89514 24827 ft 475 kts 140°
2026-05-09 01:33 41.64427 -85.86338 24832 ft 474 kts 140°
2026-05-09 01:33 41.62143 -85.83149 24835 ft 477 kts 140°
2026-05-09 01:33 41.59858 -85.79963 24832 ft 476 kts 140°
2026-05-09 01:33 41.57573 -85.76779 24826 ft 477 kts 140°
2026-05-09 01:34 41.55285 -85.73595 24828 ft 475 kts 140°
2026-05-09 01:34 41.52978 -85.70390 24834 ft 476 kts 140°
2026-05-09 01:34 41.50696 -85.67221 24836 ft 479 kts 140°
2026-05-09 01:34 41.48417 -85.64060 24830 ft 478 kts 140°
2026-05-09 01:35 41.46109 -85.60861 24825 ft 476 kts 140°
2026-05-09 01:35 41.43802 -85.57670 24834 ft 477 kts 140°
2026-05-09 01:35 41.41533 -85.54533 24840 ft 475 kts 140°
2026-05-09 01:35 41.39222 -85.51343 24829 ft 476 kts 140°
2026-05-09 01:36 41.36944 -85.48200 24841 ft 478 kts 140°
2026-05-09 01:36 41.34642 -85.45028 24840 ft 474 kts 140°
2026-05-09 01:36 41.32357 -85.41882 24838 ft 474 kts 140°
2026-05-09 01:36 41.30067 -85.38734 24837 ft 477 kts 140°
2026-05-09 01:37 41.27757 -85.35561 24842 ft 476 kts 140°
2026-05-09 01:37 41.25448 -85.32393 24651 ft 475 kts 141°
2026-05-09 01:37 41.23160 -85.29257 24350 ft 472 kts 141°
2026-05-09 01:37 41.20886 -85.26144 24073 ft 469 kts 141°
2026-05-09 01:38 41.18644 -85.23077 23810 ft 465 kts 141°
2026-05-09 01:38 41.16419 -85.20038 23549 ft 462 kts 141°
2026-05-09 01:38 41.14186 -85.16991 23287 ft 462 kts 141°
2026-05-09 01:38 41.11942 -85.13932 23039 ft 458 kts 140°
2026-05-09 01:39 41.09720 -85.10907 22860 ft 459 kts 141°
2026-05-09 01:39 41.07514 -85.07905 22856 ft 455 kts 140°
2026-05-09 01:39 41.05319 -85.04923 22845 ft 459 kts 140°
2026-05-09 01:39 41.03086 -85.01890 22852 ft 459 kts 141°
2026-05-09 01:40 41.00863 -84.98875 22852 ft 460 kts 141°
2026-05-09 01:40 40.98626 -84.95844 22852 ft 459 kts 141°
2026-05-09 01:40 40.96413 -84.92849 22844 ft 457 kts 141°
2026-05-09 01:40 40.94199 -84.89854 22848 ft 459 kts 141°
2026-05-09 01:41 40.91972 -84.86848 22850 ft 460 kts 140°
2026-05-09 01:41 40.89733 -84.83826 22854 ft 460 kts 141°
2026-05-09 01:41 40.87478 -84.80786 22850 ft 459 kts 140°
2026-05-09 01:41 40.85434 -84.77532 22844 ft 470 kts 124°
2026-05-09 01:42 40.84068 -84.73614 22885 ft 475 kts 116°
2026-05-09 01:42 40.82821 -84.69573 22862 ft 475 kts 116°
2026-05-09 01:42 40.81578 -84.65553 22859 ft 474 kts 115°
2026-05-09 01:42 40.80334 -84.61540 22864 ft 476 kts 115°
2026-05-09 01:43 40.79072 -84.57477 22855 ft 476 kts 115°
2026-05-09 01:43 40.77827 -84.53472 22865 ft 475 kts 115°
2026-05-09 01:43 40.76563 -84.49414 22866 ft 477 kts 115°
2026-05-09 01:43 40.75314 -84.45404 22859 ft 475 kts 116°
2026-05-09 01:44 40.74057 -84.41380 22698 ft 474 kts 115°
2026-05-09 01:44 40.72810 -84.37398 22504 ft 473 kts 115°
2026-05-09 01:44 40.71563 -84.33411 22252 ft 470 kts 116°
2026-05-09 01:44 40.70320 -84.29452 21988 ft 468 kts 116°
2026-05-09 01:45 40.69072 -84.25481 21712 ft 465 kts 116°
2026-05-09 01:45 40.67846 -84.21584 21396 ft 462 kts 116°
2026-05-09 01:45 40.66611 -84.17661 21079 ft 459 kts 116°
2026-05-09 01:45 40.65389 -84.13791 20769 ft 458 kts 115°
2026-05-09 01:46 40.64178 -84.09959 20461 ft 453 kts 115°
2026-05-09 01:46 40.62977 -84.06160 20158 ft 451 kts 115°
2026-05-09 01:46 40.61773 -84.02361 19849 ft 449 kts 115°
2026-05-09 01:46 40.60593 -83.98640 19547 ft 445 kts 115°
2026-05-09 01:47 40.59392 -83.94862 19221 ft 443 kts 115°
2026-05-09 01:47 40.58223 -83.91189 18933 ft 439 kts 115°
2026-05-09 01:47 40.57043 -83.87485 18629 ft 437 kts 114°
2026-05-09 01:47 40.55871 -83.83808 18304 ft 435 kts 114°
2026-05-09 01:48 40.54711 -83.80179 18003 ft 433 kts 114°
2026-05-09 01:48 40.53553 -83.76557 17705 ft 430 kts 114°
2026-05-09 01:48 40.52406 -83.72980 17409 ft 429 kts 114°
2026-05-09 01:48 40.51241 -83.69344 17087 ft 427 kts 114°
2026-05-09 01:49 40.50109 -83.65820 16801 ft 422 kts 114°
2026-05-09 01:49 40.48962 -83.62251 16480 ft 422 kts 114°
2026-05-09 01:49 40.47820 -83.58707 16031 ft 421 kts 114°
2026-05-09 01:49 40.46693 -83.55209 15585 ft 415 kts 115°
2026-05-09 01:50 40.45574 -83.51743 15120 ft 412 kts 114°
2026-05-09 01:50 40.44426 -83.48335 14667 ft 408 kts 122°
2026-05-09 01:50 40.42853 -83.45296 14249 ft 401 kts 129°
2026-05-09 01:50 40.41217 -83.42358 13999 ft 397 kts 128°
2026-05-09 01:51 40.39594 -83.39452 13972 ft 399 kts 129°
2026-05-09 01:51 40.37950 -83.36513 13689 ft 400 kts 129°
2026-05-09 01:51 40.36322 -83.33605 13422 ft 397 kts 130°
2026-05-09 01:51 40.34683 -83.30682 13162 ft 395 kts 129°
2026-05-09 01:52 40.33067 -83.27803 12913 ft 393 kts 129°
2026-05-09 01:52 40.31421 -83.24992 12652 ft 389 kts 137°
2026-05-09 01:52 40.29382 -83.22698 12425 ft 383 kts 145°
2026-05-09 01:52 40.27316 -83.20541 12178 ft 383 kts 146°
2026-05-09 01:53 40.25226 -83.18365 11819 ft 382 kts 146°
2026-05-09 01:53 40.23195 -83.16252 11362 ft 373 kts 146°
2026-05-09 01:53 40.21202 -83.14178 10886 ft 360 kts 144°
2026-05-09 01:53 40.19574 -83.11720 10420 ft 354 kts 127°
2026-05-09 01:54 40.18264 -83.09094 10004 ft 338 kts 126°
2026-05-09 01:54 40.17058 -83.06649 9953 ft 309 kts 127°
2026-05-09 01:54 40.15860 -83.04346 9953 ft 307 kts 128°
2026-05-09 01:54 40.14646 -83.02045 9575 ft 309 kts 129°
2026-05-09 01:55 40.13433 -82.99744 9186 ft 307 kts 128°
2026-05-09 01:55 40.12242 -82.97485 8661 ft 298 kts 129°
2026-05-09 01:55 40.11077 -82.95288 8113 ft 289 kts 131°
2026-05-09 01:55 40.09905 -82.93217 7581 ft 284 kts 131°
2026-05-09 01:56 40.09059 -82.90884 7085 ft 290 kts 102°
2026-05-09 01:56 40.08857 -82.88303 6612 ft 289 kts 98°
2026-05-09 01:56 40.08706 -82.85695 6091 ft 287 kts 97°
2026-05-09 01:56 40.08559 -82.83102 5566 ft 284 kts 97°
2026-05-09 01:57 40.08404 -82.80548 5054 ft 284 kts 97°
2026-05-09 01:57 40.08244 -82.78020 4548 ft 279 kts 97°
2026-05-09 01:57 40.08084 -82.75516 4035 ft 276 kts 98°
2026-05-09 01:57 40.07930 -82.73067 3483 ft 269 kts 98°
2026-05-09 01:58 40.07782 -82.70695 3042 ft 259 kts 97°
2026-05-09 01:58 40.07630 -82.68370 3006 ft 260 kts 97°
2026-05-09 01:58 40.07354 -82.66072 2998 ft 252 kts 118°
2026-05-09 01:58 40.06306 -82.64497 3022 ft 219 kts 161°
2026-05-09 01:59 40.04862 -82.64140 3072 ft 212 kts 184°
2026-05-09 01:59 40.03397 -82.64125 3004 ft 213 kts 185°
2026-05-09 01:59 40.02039 -82.64608 3010 ft 203 kts 223°
2026-05-09 01:59 40.01196 -82.66061 3027 ft 203 kts 240°
2026-05-09 02:00 40.00516 -82.67670 3002 ft 202 kts 241°
2026-05-09 02:00 39.99839 -82.69295 2996 ft 201 kts 241°
2026-05-09 02:00 39.99270 -82.70927 3009 ft 193 kts 261°
2026-05-09 02:00 39.99290 -82.72623 3045 ft 187 kts 270°
2026-05-09 02:01 39.99376 -82.74295 2817 ft 179 kts 271°
2026-05-09 02:01 39.99461 -82.75792 2638 ft 155 kts 271°
2026-05-09 02:01 39.99538 -82.77112 2422 ft 137 kts 272°
2026-05-09 02:01 39.99607 -82.78318 2244 ft 133 kts 272°
2026-05-09 02:02 39.99676 -82.79511 2074 ft 130 kts 272°
2026-05-09 02:02 39.99744 -82.80688 1908 ft 130 kts 273°
2026-05-09 02:02 39.99811 -82.81857 1740 ft 131 kts 273°
2026-05-09 02:02 39.99880 -82.83064 1561 ft 133 kts 274°
2026-05-09 02:03 39.99949 -82.84264 1384 ft 134 kts 274°
2026-05-09 02:03 40.00010 -82.85468 1189 ft 131 kts 274°
2026-05-09 02:03 40.00073 -82.86652 996 ft 131 kts 275°
2026-05-09 02:03 40.00149 -82.87840 862 ft 134 kts 274°
2026-05-09 02:04 40.00219 -82.89006 812 ft 114 kts 274°
2026-05-09 02:04 40.00265 -82.89809 814 ft 66 kts 274°
2026-05-09 02:04 40.00289 -82.90244 814 ft 41 kts 274°
2026-05-09 02:04 40.00243 -82.90400 814 ft 9 kts 183°
2026-05-09 02:05 40.00206 -82.90368 814 ft 5 kts 110°
2026-05-09 02:05 40.00202 -82.90343 814 ft 0 kts 96°
2026-05-09 02:05 40.00197 -82.90266 814 ft 13 kts 94°
2026-05-09 02:05 40.00190 -82.90139 814 ft 14 kts 95°
2026-05-09 02:06 40.00183 -82.90004 814 ft 16 kts 94°
2026-05-09 02:06 40.00174 -82.89851 814 ft 17 kts 93°
2026-05-09 02:06 40.00166 -82.89681 814 ft 19 kts 94°
2026-05-09 02:07 40.00143 -82.89304 814 ft 22 kts 94°
2026-05-09 02:07 40.00132 -82.89100 813 ft 22 kts 94°
2026-05-09 02:07 40.00120 -82.88886 811 ft 24 kts 94°
2026-05-09 02:07 40.00108 -82.88690 811 ft 16 kts 99°
2026-05-09 02:08 40.00028 -82.88605 811 ft 15 kts 105°
2026-05-09 02:08 40.00025 -82.88461 810 ft 16 kts 91°
2026-05-09 02:08 40.00011 -82.88314 811 ft 16 kts 110°
2026-05-09 02:08 39.99976 -82.88173 811 ft 16 kts 92°
2026-05-09 02:09 39.99970 -82.88068 811 ft 8 kts 94°
2026-05-09 02:09 39.99965 -82.87986 811 ft 9 kts 94°
2026-05-09 02:09 39.99937 -82.87902 811 ft 11 kts 146°
2026-05-09 02:09 39.99856 -82.87888 811 ft 11 kts 190°
2026-05-09 02:10 39.99827 -82.87942 811 ft 5 kts 277°
2026-05-09 02:10 39.99833 -82.87988 811 ft 3 kts 277°
2026-05-09 02:10 39.99834 -82.87996 811 ft 0 kts 277°